| time (UTC) | temp F | wind direction | speed MPH | gust MPH | rain 1hr in | rain 24hr in | rain mn in | humidity % | barometer mb |
| 20260510033503 | 76 | 101 | 7.0 | 11.0 | 0.00 | 0.00 | 0.00 | 64 | 1007.1 |
| 20260510033003 | 76 | 99 | 8.0 | 11.0 | 0.00 | 0.00 | 0.00 | 63 | 1007.0 |
| 20260510032503 | 76 | 100 | 7.0 | 11.0 | 0.00 | 0.00 | 0.00 | 63 | 1006.7 |
| 20260510032024 | 76 | 98 | 7.0 | 12.0 | 0.00 | 0.00 | 0.00 | 63 | 1006.7 |
| 20260510031503 | 76 | 97 | 8.0 | 12.0 | 0.00 | 0.00 | 0.00 | 62 | 1006.6 |
| 20260510031003 | 76 | 99 | 8.0 | 12.0 | 0.00 | 0.00 | 0.00 | 62 | 1006.6 |
| 20260510030503 | 76 | 98 | 8.0 | 15.0 | 0.00 | 0.00 | 0.00 | 62 | 1006.7 |
| 20260510030024 | 77 | 98 | 8.0 | 15.0 | 0.00 | 0.00 | 0.00 | 61 | 1006.5 |
| 20260510025503 | 77 | 95 | 8.0 | 14.0 | 0.00 | 0.00 | 0.00 | 61 | 1006.4 |
| 20260510025003 | 77 | 96 | 8.0 | 14.0 | 0.00 | 0.00 | 0.00 | 61 | 1006.3 |
| 20260510024503 | 77 | 94 | 8.0 | 14.0 | 0.00 | 0.00 | 0.00 | 61 | 1006.3 |
| 20260510024003 | 77 | 94 | 8.0 | 13.0 | 0.00 | 0.00 | 0.00 | 61 | 1006.1 |
| 20260510023503 | 77 | 97 | 9.0 | 15.0 | 0.00 | 0.00 | 0.00 | 61 | 1005.9 |
| 20260510023003 | 78 | 98 | 9.0 | 15.0 | 0.00 | 0.00 | 0.00 | 61 | 1005.6 |
| 20260510022503 | 78 | 99 | 9.0 | 17.0 | 0.00 | 0.00 | 0.00 | 60 | 1005.4 |
| 20260510022003 | 78 | 102 | 9.0 | 17.0 | 0.00 | 0.00 | 0.00 | 60 | 1005.2 |
| 20260510021524 | 78 | 103 | 9.0 | 15.0 | 0.00 | 0.00 | 0.00 | 60 | 1005.1 |
| 20260510021003 | 78 | 105 | 10.0 | 16.0 | 0.00 | 0.00 | 0.00 | 60 | 1005.1 |
| 20260510020503 | 78 | 105 | 10.0 | 16.0 | 0.00 | 0.00 | 0.00 | 59 | 1005.0 |
| 20260510020003 | 79 | 102 | 10.0 | 15.0 | 0.00 | 0.00 | 0.00 | 58 | 1004.9 |
| 20260510015503 | 79 | 104 | 10.0 | 15.0 | 0.00 | 0.00 | 0.00 | 58 | 1004.7 |
| 20260510015003 | 79 | 105 | 10.0 | 18.0 | 0.00 | 0.00 | 0.00 | 57 | 1004.8 |
| 20260510014503 | 80 | 104 | 11.0 | 18.0 | 0.00 | 0.00 | 0.00 | 57 | 1004.7 |
| 20260510014003 | 80 | 106 | 10.0 | 18.0 | 0.00 | 0.00 | 0.00 | 56 | 1004.6 |
| 20260510013503 | 80 | 106 | 9.0 | 15.0 | 0.00 | 0.00 | 0.00 | 56 | 1004.7 |
| 20260510013003 | 80 | 106 | 9.0 | 15.0 | 0.00 | 0.00 | 0.00 | 55 | 1004.5 |
| 20260510012503 | 81 | 105 | 9.0 | 18.0 | 0.00 | 0.00 | 0.00 | 54 | 1004.5 |
| 20260510012003 | 81 | 107 | 10.0 | 18.0 | 0.00 | 0.00 | 0.00 | 53 | 1004.5 |
| 20260510011503 | 82 | 108 | 9.0 | 14.0 | 0.00 | 0.00 | 0.00 | 52 | 1004.4 |
| 20260510011003 | 82 | 106 | 9.0 | 16.0 | 0.00 | 0.00 | 0.00 | 52 | 1004.4 |
| 20260510010524 | 82 | 113 | 9.0 | 16.0 | 0.00 | 0.00 | 0.00 | 51 | 1004.4 |
| 20260510010003 | 82 | 115 | 10.0 | 20.0 | 0.00 | 0.00 | 0.00 | 51 | 1004.4 |
| 20260510005524 | 82 | 110 | 10.0 | 20.0 | 0.00 | 0.00 | 0.00 | 51 | 1004.4 |
| 20260510005003 | 82 | 110 | 10.0 | 17.0 | 0.00 | 0.00 | 0.00 | 51 | 1004.3 |
| 20260510004503 | 83 | 112 | 10.0 | 22.0 | 0.00 | 0.00 | 0.00 | 50 | 1004.2 |
| 20260510004003 | 83 | 111 | 10.0 | 22.0 | 0.00 | 0.00 | 0.00 | 50 | 1004.3 |
| 20260510003503 | 83 | 115 | 11.0 | 20.0 | 0.00 | 0.00 | 0.00 | 50 | 1004.3 |
| 20260510003003 | 83 | 115 | 11.0 | 22.0 | 0.00 | 0.00 | 0.00 | 50 | 1004.3 |
| 20260510002503 | 83 | 116 | 12.0 | 25.0 | 0.00 | 0.00 | 0.00 | 50 | 1004.4 |
| 20260510002003 | 83 | 116 | 12.0 | 25.0 | 0.00 | 0.00 | 0.00 | 50 | 1004.3 |
| 20260510001503 | 83 | 110 | 11.0 | 24.0 | 0.00 | 0.00 | 0.00 | 50 | 1004.2 |
| 20260510001024 | 83 | 106 | 11.0 | 20.0 | 0.00 | 0.00 | 0.00 | 50 | 1004.2 |
| 20260510000503 | 83 | 111 | 11.0 | 21.0 | 0.00 | 0.00 | 0.00 | 50 | 1004.5 |
| 20260510000003 | 83 | 116 | 11.0 | 21.0 | 0.00 | 0.00 | 0.00 | 50 | 1004.6 |
| 20260509235503 | 83 | 110 | 12.0 | 21.0 | 0.00 | 0.00 | 0.00 | 50 | 1004.6 |
| 20260509235024 | 83 | 106 | 12.0 | 24.0 | 0.00 | 0.00 | 0.00 | 50 | 1004.7 |
| 20260509234503 | 83 | 112 | 10.0 | 24.0 | 0.00 | 0.00 | 0.00 | 50 | 1004.9 |
| 20260509234003 | 83 | 112 | 10.0 | 18.0 | 0.00 | 0.00 | 0.00 | 51 | 1004.7 |
| 20260509233503 | 83 | 111 | 11.0 | 18.0 | 0.00 | 0.00 | 0.00 | 53 | 1004.5 |
| 20260509233024 | 83 | 117 | 11.0 | 21.0 | 0.00 | 0.00 | 0.00 | 53 | 1004.6 |
| 20260509232524 | 83 | 117 | 12.0 | 21.0 | 0.00 | 0.00 | 0.00 | 53 | 1004.5 |
| 20260509232003 | 82 | 112 | 11.0 | 20.0 | 0.00 | 0.00 | 0.00 | 55 | 1004.5 |
| 20260509231503 | 82 | 110 | 13.0 | 28.0 | 0.00 | 0.00 | 0.00 | 57 | 1004.4 |
| 20260509231003 | 84 | 117 | 12.0 | 28.0 | 0.00 | 0.00 | 0.00 | 53 | 1004.6 |
| 20260509230503 | 84 | 125 | 11.0 | 25.0 | 0.00 | 0.00 | 0.00 | 50 | 1005.0 |
| 20260509230003 | 84 | 134 | 13.0 | 23.0 | 0.00 | 0.00 | 0.00 | 49 | 1005.0 |
| 20260509225503 | 86 | 130 | 13.0 | 26.0 | 0.00 | 0.00 | 0.00 | 48 | 1004.9 |
| 20260509225003 | 86 | 114 | 11.0 | 26.0 | 0.00 | 0.00 | 0.00 | 48 | 1004.8 |
| 20260509224503 | 85 | 114 | 10.0 | 22.0 | 0.00 | 0.00 | 0.00 | 50 | 1005.0 |
| 20260509224003 | 85 | 113 | 10.0 | 17.0 | 0.00 | 0.00 | 0.00 | 50 | 1005.2 |
| 20260509223503 | 85 | 108 | 10.0 | 17.0 | 0.00 | 0.00 | 0.00 | 49 | 1005.2 |
| 20260509223003 | 86 | 116 | 10.0 | 17.0 | 0.00 | 0.00 | 0.00 | 51 | 1005.3 |
| 20260509222503 | 85 | 121 | 11.0 | 22.0 | 0.00 | 0.00 | 0.00 | 51 | 1005.5 |
| 20260509222024 | 86 | 115 | 11.0 | 22.0 | 0.00 | 0.00 | 0.00 | 47 | 1005.4 |
| 20260509221503 | 86 | 110 | 13.0 | 28.0 | 0.00 | 0.00 | 0.00 | 45 | 1005.3 |
| 20260509221003 | 86 | 111 | 14.0 | 28.0 | 0.00 | 0.00 | 0.00 | 45 | 1005.2 |
| 20260509220503 | 87 | 113 | 12.0 | 21.0 | 0.00 | 0.00 | 0.00 | 44 | 1005.2 |
| 20260509220003 | 88 | 112 | 13.0 | 22.0 | 0.00 | 0.00 | 0.00 | 43 | 1005.2 |
| 20260509215503 | 88 | 112 | 13.0 | 23.0 | 0.00 | 0.00 | 0.00 | 42 | 1005.3 |
| 20260509215003 | 89 | 109 | 12.0 | 23.0 | 0.00 | 0.00 | 0.00 | 41 | 1005.4 |
| 20260509214503 | 90 | 113 | 11.0 | 18.0 | 0.00 | 0.00 | 0.00 | 41 | 1005.5 |
| 20260509214003 | 90 | 119 | 11.0 | 18.0 | 0.00 | 0.00 | 0.00 | 40 | 1005.6 |
| 20260509213503 | 90 | 127 | 10.0 | 20.0 | 0.00 | 0.00 | 0.00 | 40 | 1005.6 |
| 20260509213003 | 90 | 118 | 11.0 | 20.0 | 0.00 | 0.00 | 0.00 | 40 | 1005.7 |
| 20260509212503 | 90 | 126 | 11.0 | 26.0 | 0.00 | 0.00 | 0.00 | 40 | 1005.8 |
| 20260509212003 | 90 | 143 | 10.0 | 26.0 | 0.00 | 0.00 | 0.00 | 39 | 1006.0 |
| 20260509211503 | 91 | 135 | 10.0 | 20.0 | 0.00 | 0.00 | 0.00 | 37 | 1006.2 |
| 20260509211024 | 90 | 141 | 11.0 | 20.0 | 0.00 | 0.00 | 0.00 | 38 | 1006.3 |
| 20260509210503 | 90 | 150 | 10.0 | 19.0 | 0.00 | 0.00 | 0.00 | 39 | 1006.3 |
| 20260509210003 | 89 | 152 | 9.0 | 19.0 | 0.00 | 0.00 | 0.00 | 41 | 1006.5 |
| 20260509205503 | 89 | 140 | 10.0 | 24.0 | 0.00 | 0.00 | 0.00 | 41 | 1006.7 |
| 20260509205003 | 90 | 149 | 11.0 | 24.0 | 0.00 | 0.00 | 0.00 | 40 | 1006.8 |
| 20260509204524 | 90 | 159 | 11.0 | 24.0 | 0.00 | 0.00 | 0.00 | 40 | 1006.8 |
| 20260509204003 | 90 | 155 | 11.0 | 20.0 | 0.00 | 0.00 | 0.00 | 40 | 1007.0 |
| 20260509203503 | 89 | 160 | 12.0 | 23.0 | 0.00 | 0.00 | 0.00 | 41 | 1007.0 |
| 20260509203003 | 89 | 159 | 11.0 | 23.0 | 0.00 | 0.00 | 0.00 | 41 | 1007.2 |
| 20260509202503 | 88 | 152 | 10.0 | 20.0 | 0.00 | 0.00 | 0.00 | 43 | 1007.3 |
| 20260509202003 | 88 | 146 | 10.0 | 19.0 | 0.00 | 0.00 | 0.00 | 42 | 1007.3 |
| 20260509201503 | 88 | 145 | 10.0 | 19.0 | 0.00 | 0.00 | 0.00 | 43 | 1007.6 |
| 20260509201003 | 88 | 149 | 10.0 | 19.0 | 0.00 | 0.00 | 0.00 | 42 | 1007.8 |
| 20260509200503 | 87 | 151 | 9.0 | 17.0 | 0.00 | 0.00 | 0.00 | 43 | 1007.9 |
| 20260509200003 | 87 | 155 | 8.0 | 18.0 | 0.00 | 0.00 | 0.00 | 43 | 1008.1 |
| 20260509195503 | 87 | 160 | 9.0 | 18.0 | 0.00 | 0.00 | 0.00 | 43 | 1008.2 |
| 20260509195024 | 87 | 162 | 10.0 | 20.0 | 0.00 | 0.00 | 0.00 | 43 | 1008.3 |
| 20260509194503 | 86 | 156 | 11.0 | 21.0 | 0.00 | 0.00 | 0.00 | 44 | 1008.4 |
| 20260509194024 | 86 | 146 | 11.0 | 21.0 | 0.00 | 0.00 | 0.00 | 44 | 1008.4 |
| 20260509193503 | 86 | 149 | 10.0 | 24.0 | 0.00 | 0.00 | 0.00 | 44 | 1008.5 |
| 20260509193003 | 86 | 154 | 11.0 | 24.0 | 0.00 | 0.00 | 0.00 | 45 | 1008.5 |
| 20260509192503 | 86 | 153 | 10.0 | 18.0 | 0.00 | 0.00 | 0.00 | 44 | 1008.7 |
| 20260509192003 | 86 | 156 | 10.0 | 23.0 | 0.00 | 0.00 | 0.00 | 43 | 1008.8 |
| 20260509191503 | 86 | 155 | 10.0 | 23.0 | 0.00 | 0.00 | 0.00 | 44 | 1008.9 |
| 20260509191003 | 86 | 148 | 11.0 | 22.0 | 0.00 | 0.00 | 0.00 | 45 | 1008.9 |
| 20260509190503 | 85 | 156 | 10.0 | 21.0 | 0.00 | 0.00 | 0.00 | 46 | 1009.1 |
| 20260509190003 | 85 | 154 | 10.0 | 19.0 | 0.00 | 0.00 | 0.00 | 47 | 1009.0 |
| 20260509185503 | 85 | 151 | 11.0 | 19.0 | 0.00 | 0.00 | 0.00 | 46 | 1009.1 |
| 20260509185003 | 84 | 165 | 11.0 | 21.0 | 0.00 | 0.00 | 0.00 | 47 | 1009.2 |
| 20260509184503 | 84 | 153 | 10.0 | 21.0 | 0.00 | 0.00 | 0.00 | 48 | 1009.3 |
| 20260509184003 | 84 | 145 | 10.0 | 21.0 | 0.00 | 0.00 | 0.00 | 47 | 1009.4 |
| 20260509183503 | 84 | 154 | 9.0 | 21.0 | 0.00 | 0.00 | 0.00 | 49 | 1009.5 |
| 20260509183003 | 84 | 142 | 8.0 | 16.0 | 0.00 | 0.00 | 0.00 | 48 | 1009.6 |
| 20260509182503 | 83 | 139 | 8.0 | 15.0 | 0.00 | 0.00 | 0.00 | 49 | 1009.8 |
| 20260509182024 | 83 | 154 | 9.0 | 17.0 | 0.00 | 0.00 | 0.00 | 50 | 1009.8 |
| 20260509181503 | 83 | 152 | 9.0 | 18.0 | 0.00 | 0.00 | 0.00 | 50 | 1010.0 |
| 20260509181003 | 83 | 144 | 8.0 | 18.0 | 0.00 | 0.00 | 0.00 | 51 | 1010.0 |
| 20260509180503 | 82 | 148 | 9.0 | 21.0 | 0.00 | 0.00 | 0.00 | 52 | 1010.1 |
| 20260509180003 | 82 | 145 | 8.0 | 21.0 | 0.00 | 0.00 | 0.00 | 52 | 1010.2 |
| 20260509175503 | 82 | 146 | 8.0 | 18.0 | 0.00 | 0.00 | 0.00 | 53 | 1010.3 |
| 20260509175003 | 82 | 154 | 9.0 | 18.0 | 0.00 | 0.00 | 0.00 | 54 | 1010.4 |
| 20260509174503 | 82 | 161 | 9.0 | 17.0 | 0.00 | 0.00 | 0.00 | 53 | 1010.6 |
| 20260509174024 | 81 | 148 | 9.0 | 17.0 | 0.00 | 0.00 | 0.00 | 56 | 1010.5 |
| 20260509173503 | 82 | 149 | 8.0 | 16.0 | 0.00 | 0.00 | 0.00 | 53 | 1010.6 |
| 20260509173003 | 81 | 163 | 6.0 | 16.0 | 0.00 | 0.00 | 0.00 | 54 | 1010.7 |
| 20260509172503 | 81 | 152 | 7.0 | 17.0 | 0.00 | 0.00 | 0.00 | 56 | 1010.8 |
| 20260509172003 | 80 | 153 | 7.0 | 17.0 | 0.00 | 0.00 | 0.00 | 55 | 1010.9 |
| 20260509171524 | 80 | 171 | 6.0 | 13.0 | 0.00 | 0.00 | 0.00 | 56 | 1011.0 |
| 20260509171003 | 81 | 174 | 6.0 | 16.0 | 0.00 | 0.00 | 0.00 | 55 | 1011.1 |
| 20260509170503 | 80 | 160 | 7.0 | 16.0 | 0.00 | 0.00 | 0.00 | 55 | 1011.1 |
| 20260509170003 | 80 | 138 | 6.0 | 14.0 | 0.00 | 0.00 | 0.00 | 56 | 1011.2 |
| 20260509165503 | 80 | 129 | 5.0 | 10.0 | 0.00 | 0.00 | 0.00 | 56 | 1011.2 |
| 20260509165003 | 80 | 150 | 5.0 | 12.0 | 0.00 | 0.00 | 0.00 | 57 | 1011.2 |
| 20260509164503 | 79 | 125 | 5.0 | 12.0 | 0.00 | 0.00 | 0.00 | 57 | 1011.3 |
| 20260509164024 | 79 | 125 | 4.0 | 10.0 | 0.00 | 0.00 | 0.00 | 59 | 1011.3 |
| 20260509163503 | 78 | 169 | 3.0 | 10.0 | 0.00 | 0.00 | 0.00 | 60 | 1011.4 |
| 20260509163003 | 78 | 143 | 5.0 | 10.0 | 0.00 | 0.00 | 0.00 | 60 | 1011.4 |
| 20260509162503 | 78 | 108 | 4.0 | 9.0 | 0.00 | 0.00 | 0.00 | 61 | 1011.5 |
| 20260509162024 | 78 | 98 | 4.0 | 9.0 | 0.00 | 0.00 | 0.00 | 61 | 1011.6 |
| 20260509161503 | 78 | 104 | 4.0 | 9.0 | 0.00 | 0.00 | 0.00 | 61 | 1011.6 |
| 20260509161003 | 78 | 136 | 2.0 | 7.0 | 0.00 | 0.00 | 0.00 | 61 | 1011.7 |
| 20260509160503 | 78 | 140 | 3.0 | 9.0 | 0.00 | 0.00 | 0.00 | 62 | 1011.7 |
| 20260509160024 | 77 | 119 | 3.0 | 9.0 | 0.00 | 0.00 | 0.00 | 62 | 1011.8 |
| 20260509155503 | 77 | 117 | 2.0 | 8.0 | 0.00 | 0.00 | 0.00 | 62 | 1011.7 |
| 20260509155003 | 77 | 149 | 3.0 | 8.0 | 0.00 | 0.00 | 0.00 | 63 | 1011.8 |
| 20260509154503 | 76 | 236 | 3.0 | 7.0 | 0.00 | 0.00 | 0.00 | 64 | 1011.7 |
| 20260509154003 | 76 | 235 | 3.0 | 8.0 | 0.00 | 0.00 | 0.00 | 65 | 1011.8 |
| 20260509153503 | 75 | 161 | 4.0 | 8.0 | 0.00 | 0.00 | 0.00 | 66 | 1011.8 |
| 20260509153003 | 75 | 113 | 3.0 | 8.0 | 0.00 | 0.00 | 0.00 | 66 | 1011.9 |
| 20260509152503 | 74 | 139 | 3.0 | 7.0 | 0.00 | 0.00 | 0.00 | 68 | 1012.0 |
| 20260509152003 | 74 | 173 | 4.0 | 7.0 | 0.00 | 0.00 | 0.00 | 68 | 1012.0 |
| 20260509151524 | 74 | 183 | 3.0 | 10.0 | 0.00 | 0.00 | 0.00 | 67 | 1012.0 |
| 20260509151003 | 74 | 186 | 3.0 | 10.0 | 0.00 | 0.00 | 0.00 | 68 | 1012.1 |
| 20260509150503 | 74 | 179 | 3.0 | 9.0 | 0.00 | 0.00 | 0.00 | 68 | 1012.1 |
| 20260509150003 | 73 | 179 | 2.0 | 6.0 | 0.00 | 0.00 | 0.00 | 69 | 1012.2 |
| 20260509145524 | 73 | 178 | 3.0 | 7.0 | 0.00 | 0.00 | 0.00 | 71 | 1012.1 |
| 20260509145003 | 72 | 176 | 4.0 | 9.0 | 0.00 | 0.00 | 0.00 | 71 | 1012.1 |
| 20260509144503 | 72 | 177 | 3.0 | 10.0 | 0.00 | 0.00 | 0.00 | 72 | 1012.0 |
| 20260509144003 | 72 | 249 | 2.0 | 10.0 | 0.00 | 0.00 | 0.00 | 72 | 1011.9 |
| 20260509143503 | 72 | 344 | 2.0 | 4.0 | 0.00 | 0.00 | 0.00 | 71 | 1012.0 |
| 20260509143003 | 72 | 344 | 1.0 | 3.0 | 0.00 | 0.00 | 0.00 | 71 | 1012.0 |
| 20260509142503 | 71 | 344 | 1.0 | 2.0 | 0.00 | 0.00 | 0.00 | 74 | 1012.1 |
| 20260509142024 | 70 | 344 | 0.0 | 2.0 | 0.00 | 0.00 | 0.00 | 75 | 1012.0 |
| 20260509141503 | 70 | 344 | 0.0 | 2.0 | 0.00 | 0.00 | 0.00 | 75 | 1012.1 |
| 20260509141003 | 70 | 344 | 0.0 | 2.0 | 0.00 | 0.00 | 0.00 | 77 | 1012.1 |
| 20260509140503 | 69 | 344 | 1.0 | 2.0 | 0.00 | 0.00 | 0.00 | 78 | 1012.2 |
| 20260509140004 | 69 | 344 | 0.0 | 2.0 | 0.00 | 0.00 | 0.00 | 79 | 1012.2 |
| 20260509135503 | 68 | 344 | 0.0 | 2.0 | 0.00 | 0.00 | 0.00 | 81 | 1012.2 |
| 20260509135003 | 67 | 344 | 0.0 | 2.0 | 0.00 | 0.00 | 0.00 | 82 | 1012.3 |
| 20260509134503 | 66 | 344 | 1.0 | 2.0 | 0.00 | 0.00 | 0.00 | 84 | 1012.3 |
| 20260509134003 | 66 | 344 | 1.0 | 2.0 | 0.00 | 0.00 | 0.00 | 85 | 1012.3 |
| 20260509133503 | 65 | 344 | 0.0 | 2.0 | 0.00 | 0.00 | 0.00 | 87 | 1012.2 |
| 20260509133003 | 64 | 344 | 0.0 | 2.0 | 0.00 | 0.00 | 0.00 | 89 | 1012.2 |
| 20260509132503 | 63 | 0 | 0.0 | 0.0 | 0.00 | 0.00 | 0.00 | 89 | 1012.3 |
| 20260509132003 | 62 | 0 | 0.0 | 0.0 | 0.00 | 0.00 | 0.00 | 90 | 1012.3 |
| 20260509131503 | 61 | 0 | 0.0 | 0.0 | 0.00 | 0.00 | 0.00 | 90 | 1012.3 |
| 20260509131003 | 61 | 0 | 0.0 | 0.0 | 0.00 | 0.00 | 0.00 | 90 | 1012.3 |
| 20260509130503 | 60 | 0 | 0.0 | 0.0 | 0.00 | 0.00 | 0.00 | 90 | 1012.3 |
| 20260509130003 | 60 | 344 | 0.0 | 2.0 | 0.00 | 0.00 | 0.00 | 91 | 1012.3 |
| 20260509125524 | 60 | 344 | 0.0 | 2.0 | 0.00 | 0.00 | 0.00 | 92 | 1012.2 |
| 20260509125003 | 59 | 344 | 0.0 | 1.0 | 0.00 | 0.00 | 0.00 | 92 | 1012.2 |
| 20260509124503 | 58 | 344 | 0.0 | 2.0 | 0.00 | 0.00 | 0.00 | 92 | 1012.2 |
| 20260509124024 | 58 | 344 | 0.0 | 2.0 | 0.00 | 0.00 | 0.00 | 93 | 1012.2 |
| 20260509123503 | 58 | 344 | 0.0 | 1.0 | 0.00 | 0.00 | 0.00 | 94 | 1012.0 |
| 20260509123003 | 57 | 344 | 0.0 | 1.0 | 0.00 | 0.00 | 0.00 | 93 | 1011.8 |
| 20260509122524 | 57 | 344 | 0.0 | 2.0 | 0.00 | 0.00 | 0.00 | 93 | 1011.7 |
| 20260509122003 | 56 | 344 | 0.0 | 2.0 | 0.00 | 0.00 | 0.00 | 93 | 1011.7 |
| 20260509121503 | 56 | 0 | 0.0 | 0.0 | 0.00 | 0.00 | 0.00 | 93 | 1011.7 |
| 20260509121024 | 56 | 0 | 0.0 | 0.0 | 0.00 | 0.00 | 0.00 | 93 | 1011.7 |
| 20260509120503 | 56 | 0 | 0.0 | 0.0 | 0.00 | 0.00 | 0.00 | 93 | 1011.6 |
| 20260509120003 | 56 | 0 | 0.0 | 0.0 | 0.00 | 0.00 | 0.00 | 93 | 1011.5 |
| 20260509115524 | 56 | 0 | 0.0 | 0.0 | 0.00 | 0.00 | 0.00 | 93 | 1011.4 |
| 20260509115003 | 56 | 0 | 0.0 | 0.0 | 0.00 | 0.00 | 0.00 | 93 | 1011.5 |
| 20260509114503 | 56 | 0 | 0.0 | 0.0 | 0.00 | 0.00 | 0.00 | 93 | 1011.4 |
| 20260509114003 | 56 | 0 | 0.0 | 0.0 | 0.00 | 0.00 | 0.00 | 93 | 1011.3 |
| 20260509113503 | 56 | 0 | 0.0 | 0.0 | 0.00 | 0.00 | 0.00 | 93 | 1011.3 |
| 20260509113003 | 56 | 0 | 0.0 | 0.0 | 0.00 | 0.00 | 0.00 | 93 | 1011.2 |
| 20260509112503 | 56 | 344 | 0.0 | 2.0 | 0.00 | 0.00 | 0.00 | 93 | 1011.2 |
| 20260509112003 | 56 | 344 | 1.0 | 3.0 | 0.00 | 0.00 | 0.00 | 93 | 1011.2 |
| 20260509111503 | 56 | 344 | 1.0 | 3.0 | 0.00 | 0.00 | 0.00 | 94 | 1011.0 |
| 20260509111003 | 56 | 344 | 0.0 | 3.0 | 0.00 | 0.00 | 0.00 | 93 | 1011.1 |
| 20260509110503 | 56 | 344 | 0.0 | 2.0 | 0.00 | 0.00 | 0.00 | 93 | 1011.1 |
| 20260509110003 | 56 | 344 | 1.0 | 3.0 | 0.00 | 0.00 | 0.00 | 93 | 1011.1 |
| 20260509105524 | 56 | 344 | 2.0 | 4.0 | 0.00 | 0.00 | 0.00 | 93 | 1011.1 |
| 20260509105003 | 56 | 344 | 2.0 | 4.0 | 0.00 | 0.00 | 0.00 | 93 | 1011.1 |
| 20260509104503 | 57 | 344 | 2.0 | 4.0 | 0.00 | 0.00 | 0.00 | 93 | 1011.0 |
| 20260509104003 | 57 | 344 | 1.0 | 4.0 | 0.00 | 0.00 | 0.00 | 93 | 1010.9 |
| 20260509103503 | 57 | 344 | 1.0 | 3.0 | 0.00 | 0.00 | 0.00 | 93 | 1010.8 |
| 20260509103003 | 57 | 344 | 1.0 | 4.0 | 0.00 | 0.00 | 0.00 | 93 | 1010.7 |
| 20260509102503 | 57 | 344 | 2.0 | 4.0 | 0.00 | 0.00 | 0.00 | 93 | 1010.7 |
| 20260509102003 | 57 | 344 | 2.0 | 4.0 | 0.00 | 0.00 | 0.00 | 93 | 1010.7 |
| 20260509101503 | 57 | 344 | 2.0 | 5.0 | 0.00 | 0.00 | 0.00 | 93 | 1010.7 |
| 20260509101003 | 58 | 344 | 2.0 | 5.0 | 0.00 | 0.00 | 0.00 | 93 | 1010.7 |
| 20260509100524 | 58 | 344 | 2.0 | 5.0 | 0.00 | 0.00 | 0.00 | 93 | 1010.6 |
| 20260509100003 | 58 | 344 | 2.0 | 4.0 | 0.00 | 0.00 | 0.00 | 92 | 1010.6 |
| 20260509095503 | 58 | 343 | 2.0 | 4.0 | 0.00 | 0.00 | 0.00 | 93 | 1010.5 |
| 20260509095024 | 58 | 343 | 2.0 | 4.0 | 0.00 | 0.00 | 0.00 | 92 | 1010.6 |
| 20260509094503 | 59 | 347 | 2.0 | 5.0 | 0.00 | 0.00 | 0.00 | 92 | 1010.6 |
| 20260509094003 | 59 | 358 | 2.0 | 5.0 | 0.00 | 0.00 | 0.00 | 92 | 1010.6 |
| 20260509093503 | 59 | 30 | 1.0 | 4.0 | 0.00 | 0.00 | 0.00 | 92 | 1010.5 |
| 20260509093003 | 59 | 147 | 1.0 | 4.0 | 0.00 | 0.00 | 0.00 | 92 | 1010.3 |
| 20260509092503 | 60 | 150 | 1.0 | 3.0 | 0.00 | 0.00 | 0.00 | 92 | 1010.3 |
| 20260509092024 | 60 | 150 | 1.0 | 3.0 | 0.00 | 0.00 | 0.00 | 91 | 1010.3 |
| 20260509091503 | 60 | 150 | 1.0 | 3.0 | 0.00 | 0.00 | 0.00 | 91 | 1010.5 |
| 20260509091024 | 60 | 150 | 1.0 | 3.0 | 0.00 | 0.00 | 0.00 | 91 | 1010.5 |
| 20260509090503 | 60 | 150 | 1.0 | 3.0 | 0.00 | 0.00 | 0.00 | 91 | 1010.3 |
| 20260509090003 | 61 | 150 | 0.0 | 2.0 | 0.00 | 0.00 | 0.00 | 90 | 1010.3 |
| 20260509085503 | 61 | 150 | 0.0 | 2.0 | 0.00 | 0.00 | 0.00 | 90 | 1010.5 |
| 20260509085003 | 61 | 150 | 0.0 | 2.0 | 0.00 | 0.00 | 0.00 | 90 | 1010.5 |
| 20260509084503 | 61 | 150 | 0.0 | 2.0 | 0.00 | 0.00 | 0.00 | 90 | 1010.5 |
| 20260509084003 | 61 | 150 | 1.0 | 3.0 | 0.00 | 0.00 | 0.00 | 89 | 1010.5 |
| 20260509083503 | 62 | 150 | 1.0 | 3.0 | 0.00 | 0.00 | 0.00 | 89 | 1010.6 |
| 20260509083003 | 62 | 150 | 1.0 | 2.0 | 0.00 | 0.00 | 0.00 | 89 | 1010.5 |
| 20260509082503 | 62 | 150 | 0.0 | 2.0 | 0.00 | 0.00 | 0.00 | 89 | 1010.6 |
| 20260509082003 | 62 | 0 | 0.0 | 0.0 | 0.00 | 0.00 | 0.00 | 88 | 1010.7 |
| 20260509081503 | 62 | 150 | 0.0 | 2.0 | 0.00 | 0.00 | 0.00 | 89 | 1010.7 |
| 20260509081024 | 62 | 150 | 0.0 | 2.0 | 0.00 | 0.00 | 0.00 | 89 | 1010.7 |
| 20260509080503 | 63 | 150 | 0.0 | 1.0 | 0.00 | 0.00 | 0.00 | 88 | 1010.7 |
| 20260509080003 | 63 | 150 | 1.0 | 3.0 | 0.00 | 0.00 | 0.00 | 88 | 1010.8 |
| 20260509075503 | 63 | 150 | 1.0 | 3.0 | 0.00 | 0.00 | 0.00 | 88 | 1010.8 |
| 20260509075003 | 63 | 150 | 1.0 | 3.0 | 0.00 | 0.00 | 0.00 | 88 | 1010.7 |
| 20260509074503 | 64 | 150 | 1.0 | 5.0 | 0.00 | 0.00 | 0.00 | 88 | 1010.7 |
| 20260509074003 | 64 | 150 | 1.0 | 5.0 | 0.00 | 0.00 | 0.00 | 88 | 1010.8 |
| 20260509073503 | 64 | 150 | 1.0 | 5.0 | 0.00 | 0.00 | 0.00 | 88 | 1010.8 |
| 20260509073003 | 64 | 150 | 2.0 | 5.0 | 0.00 | 0.00 | 0.00 | 88 | 1010.8 |
| 20260509072503 | 64 | 150 | 1.0 | 5.0 | 0.00 | 0.00 | 0.00 | 88 | 1010.9 |
| 20260509072003 | 64 | 150 | 1.0 | 5.0 | 0.00 | 0.00 | 0.00 | 88 | 1010.9 |
| 20260509071524 | 64 | 150 | 2.0 | 6.0 | 0.00 | 0.00 | 0.00 | 88 | 1010.9 |
| 20260509071024 | 64 | 150 | 3.0 | 6.0 | 0.00 | 0.00 | 0.00 | 88 | 1010.9 |
| 20260509070503 | 65 | 150 | 3.0 | 5.0 | 0.00 | 0.00 | 0.00 | 88 | 1011.0 |
| 20260509070024 | 65 | 150 | 3.0 | 5.0 | 0.00 | 0.00 | 0.00 | 87 | 1010.9 |
| 20260509065503 | 65 | 150 | 3.0 | 6.0 | 0.00 | 0.00 | 0.00 | 87 | 1010.8 |
| 20260509065003 | 65 | 150 | 3.0 | 6.0 | 0.00 | 0.00 | 0.00 | 87 | 1010.8 |
| 20260509064503 | 65 | 155 | 3.0 | 6.0 | 0.00 | 0.00 | 0.00 | 87 | 1010.8 |
| 20260509064003 | 65 | 163 | 2.0 | 6.0 | 0.00 | 0.00 | 0.00 | 87 | 1010.8 |
| 20260509063524 | 65 | 166 | 3.0 | 6.0 | 0.00 | 0.00 | 0.00 | 86 | 1010.8 |
| 20260509063003 | 65 | 161 | 4.0 | 7.0 | 0.00 | 0.00 | 0.00 | 86 | 1010.9 |
| 20260509062503 | 66 | 154 | 3.0 | 7.0 | 0.00 | 0.00 | 0.00 | 86 | 1010.9 |
| 20260509062003 | 66 | 154 | 3.0 | 7.0 | 0.00 | 0.00 | 0.00 | 86 | 1010.8 |
| 20260509061504 | 66 | 153 | 4.0 | 9.0 | 0.00 | 0.00 | 0.00 | 86 | 1010.7 |
| 20260509061024 | 66 | 153 | 4.0 | 9.0 | 0.00 | 0.00 | 0.00 | 85 | 1010.7 |
| 20260509060503 | 66 | 152 | 4.0 | 9.0 | 0.00 | 0.00 | 0.00 | 85 | 1010.8 |
| 20260509060003 | 66 | 138 | 4.0 | 7.0 | 0.00 | 0.00 | 0.00 | 85 | 1010.9 |
| 20260509055503 | 66 | 123 | 3.0 | 7.0 | 0.00 | 0.00 | 0.00 | 85 | 1010.8 |
| 20260509055003 | 66 | 121 | 3.0 | 7.0 | 0.00 | 0.00 | 0.00 | 84 | 1010.8 |
| 20260509054503 | 67 | 116 | 3.0 | 7.0 | 0.00 | 0.00 | 0.00 | 84 | 1010.9 |
| 20260509054024 | 67 | 140 | 4.0 | 7.0 | 0.00 | 0.00 | 0.00 | 84 | 1011.0 |
| 20260509053503 | 67 | 149 | 4.0 | 10.0 | 0.00 | 0.00 | 0.00 | 83 | 1010.9 |
| 20260509053003 | 67 | 124 | 5.0 | 10.0 | 0.00 | 0.00 | 0.00 | 83 | 1010.9 |
| 20260509052503 | 68 | 113 | 5.0 | 10.0 | 0.00 | 0.00 | 0.00 | 83 | 1010.9 |
| 20260509052003 | 68 | 113 | 6.0 | 11.0 | 0.00 | 0.00 | 0.00 | 82 | 1011.0 |
| 20260509051503 | 68 | 108 | 6.0 | 11.0 | 0.00 | 0.00 | 0.00 | 82 | 1011.1 |
| 20260509051024 | 68 | 104 | 6.0 | 11.0 | 0.00 | 0.00 | 0.00 | 82 | 1011.1 |
| 20260509050503 | 69 | 106 | 6.0 | 11.0 | 0.00 | 0.00 | 0.00 | 81 | 1011.2 |
| 20260509050003 | 69 | 100 | 5.0 | 11.0 | 0.00 | 0.00 | 0.00 | 80 | 1011.2 |
| 20260509045503 | 69 | 95 | 5.0 | 9.0 | 0.00 | 0.00 | 0.00 | 78 | 1011.3 |
| 20260509045003 | 69 | 95 | 5.0 | 8.0 | 0.00 | 0.00 | 0.00 | 76 | 1011.3 |
| 20260509044503 | 69 | 98 | 3.0 | 8.0 | 0.00 | 0.00 | 0.00 | 75 | 1011.2 |
| 20260509044003 | 69 | 101 | 1.0 | 4.0 | 0.00 | 0.00 | 0.00 | 74 | 1011.2 |
| 20260509043503 | 69 | 101 | 0.0 | 2.0 | 0.00 | 0.00 | 0.00 | 74 | 1010.9 |
| 20260509043024 | 70 | 101 | 1.0 | 3.0 | 0.00 | 0.00 | 0.00 | 74 | 1010.7 |
| 20260509042503 | 70 | 101 | 1.0 | 3.0 | 0.00 | 0.00 | 0.00 | 74 | 1010.3 |
| 20260509042003 | 70 | 101 | 1.0 | 3.0 | 0.00 | 0.00 | 0.00 | 74 | 1010.1 |
| 20260509041503 | 70 | 101 | 2.0 | 6.0 | 0.00 | 0.00 | 0.00 | 74 | 1009.8 |
| 20260509041024 | 70 | 100 | 3.0 | 6.0 | 0.00 | 0.00 | 0.00 | 73 | 1009.8 |
| 20260509040524 | 70 | 94 | 3.0 | 7.0 | 0.00 | 0.00 | 0.00 | 72 | 1009.6 |
| 20260509040003 | 70 | 93 | 4.0 | 7.0 | 0.00 | 0.00 | 0.00 | 72 | 1009.7 |
| 20260509035503 | 70 | 110 | 3.0 | 7.0 | 0.00 | 0.00 | 0.00 | 72 | 1009.6 |
| 20260509035003 | 70 | 119 | 4.0 | 8.0 | 0.00 | 0.00 | 0.00 | 71 | 1009.6 |
| 20260509034503 | 70 | 115 | 4.0 | 8.0 | 0.00 | 0.00 | 0.00 | 70 | 1009.5 |
| 20260509034003 | 70 | 108 | 4.0 | 7.0 | 0.00 | 0.00 | 0.00 | 70 | 1009.7 |